Weather History for KMJQ - December, 2013

Change the Weather History Date:

Monday, December 23, 2013

  Actual Average Record
Temperature  
Mean Temperature -4 °F -  
Max Temperature 1 °F 23 °F 41 °F (2005)
Min Temperature -9 °F 9 °F -9 °F (2013)
Degree Days  
Heating Degree Days 69    
Moisture  
Dew Point -16 °F    
Average Humidity 60    
Maximum Humidity 78    
Minimum Humidity 43    
Precipitation  
Precipitation 0.00 in - - ()
Sea Level Pressure  
Sea Level Pressure 30.40 in    
Wind  
Wind Speed 16 mph (WNW)    
Max Wind Speed 24 mph    
Max Gust Speed 30 mph    
Visibility 10 miles    
Events      
Averages and records for this station are not official NWS values.
T = Trace of Precipitation, MM = Missing Value Source: NWS Daily Summary

Daily Weather History Graph

Daily Weather History Graph

Search for Another Location

Airport or City:

Trip Planner

Search our weather history database for the weather conditions in past years. The results will help you decide how hot, cold, wet, or windy it might be!

Date:

Astronomy

Dec. 23, 2013 Rise Set
Actual Time 7:51 AM CST 4:47 PM CST
Civil Twilight 7:18 AM CST 5:20 PM CST
Nautical Twilight 6:42 AM CST 5:56 PM CST
Astronomical Twilight 6:07 AM CST 6:31 PM CST
Moon 11:09 PM CST (12/23) 11:06 AM CST (12/23)
Length of Visible Light 10h 01m
Length of Day
8h 55m
Waning Gibbous, 68% of the Moon is Illuminated
Dec 23
Waning Gibbous
Dec 25
Last Quarter
Jan 1
New
Jan 7
First Quarter
Jan 15
Full

Hourly Weather History & Observations

Time (CST) Temp. Windchill Dew Point Humidity Pressure Visibility Wind Dir Wind Speed Gust Speed Precip Events Conditions
12:13 AM -2.2 °F -22.2 °F -9.4 °F 71% 30.28 in 10.0 mi WNW 15.0 mph 23.0 mph N/A   Clear
12:33 AM -4.0 °F -25.8 °F -9.4 °F 78% 30.28 in 10.0 mi WNW 17.3 mph 21.9 mph N/A   Clear
12:53 AM -4.0 °F -25.8 °F -11.2 °F 71% 30.28 in 10.0 mi WNW 17.3 mph - N/A   Clear
1:13 AM -4.0 °F -27.0 °F -11.2 °F 71% 30.28 in 10.0 mi WNW 19.6 mph - N/A   Clear
1:33 AM -4.0 °F -25.2 °F -13.0 °F 65% 30.28 in 10.0 mi NW 16.1 mph 24.2 mph N/A   Clear
1:53 AM -4.0 °F -25.8 °F -13.0 °F 65% 30.29 in 10.0 mi WNW 17.3 mph - N/A   Clear
2:13 AM -5.8 °F -29.4 °F -13.0 °F 71% 30.30 in 10.0 mi WNW 19.6 mph 25.3 mph N/A   Clear
2:33 AM -5.8 °F -26.8 °F -13.0 °F 71% 30.31 in 10.0 mi WNW 15.0 mph 20.7 mph N/A   Clear
2:53 AM -5.8 °F -29.4 °F -13.0 °F 71% 30.31 in 10.0 mi WNW 19.6 mph 24.2 mph N/A   Clear
3:13 AM -5.8 °F -27.5 °F -13.0 °F 71% 30.32 in 10.0 mi WNW 16.1 mph 25.3 mph N/A   Clear
3:33 AM -5.8 °F -28.2 °F -14.8 °F 65% 30.32 in 10.0 mi WNW 17.3 mph 24.2 mph N/A   Clear
3:53 AM -5.8 °F -27.5 °F -14.8 °F 65% 30.32 in 10.0 mi WNW 16.1 mph - N/A   Clear
4:13 AM -5.8 °F -28.2 °F -14.8 °F 65% 30.33 in 10.0 mi WNW 17.3 mph 24.2 mph N/A   Clear
4:33 AM -7.6 °F -29.1 °F -14.8 °F 71% 30.33 in 10.0 mi WNW 15.0 mph - N/A   Clear
4:53 AM -7.6 °F -30.5 °F -14.8 °F 71% 30.34 in 10.0 mi WNW 17.3 mph - N/A   Clear
5:13 AM -7.6 °F -29.8 °F -14.8 °F 71% 30.34 in 10.0 mi WNW 16.1 mph 23.0 mph N/A   Clear
5:33 AM -7.6 °F -28.3 °F -16.6 °F 65% 30.34 in 10.0 mi WNW 13.8 mph 21.9 mph N/A   Clear
5:53 AM -7.6 °F -30.5 °F -16.6 °F 65% 30.34 in 10.0 mi WNW 17.3 mph 23.0 mph N/A   Clear
6:13 AM -7.6 °F -29.1 °F -16.6 °F 65% 30.36 in 10.0 mi WNW 15.0 mph 25.3 mph N/A   Clear
6:33 AM -7.6 °F -30.5 °F -16.6 °F 65% 30.37 in 10.0 mi WNW 17.3 mph - N/A   Clear
6:53 AM -7.6 °F -29.8 °F -16.6 °F 65% 30.37 in 10.0 mi WNW 16.1 mph 19.6 mph N/A   Clear
7:13 AM -7.6 °F -29.8 °F -18.4 °F 59% 30.38 in 10.0 mi WNW 16.1 mph - N/A   Clear
7:33 AM -7.6 °F -32.3 °F -18.4 °F 59% 30.39 in 10.0 mi WNW 20.7 mph - N/A   Clear
7:53 AM -9.4 °F -34.7 °F -18.4 °F 65% 30.39 in 10.0 mi WNW 20.7 mph - N/A   Clear
8:13 AM -9.4 °F -33.5 °F -18.4 °F 65% 30.40 in 10.0 mi WNW 18.4 mph 23.0 mph N/A   Clear
8:33 AM -7.6 °F -31.1 °F -18.4 °F 59% 30.40 in 10.0 mi NW 18.4 mph 24.2 mph N/A   Clear
8:53 AM -7.6 °F -31.1 °F -18.4 °F 59% 30.40 in 10.0 mi NW 18.4 mph 24.2 mph N/A   Clear
9:13 AM -7.6 °F -32.9 °F -18.4 °F 59% 30.41 in - NW 21.9 mph 26.5 mph N/A   Clear
9:33 AM -7.6 °F -32.9 °F -16.6 °F 65% 30.42 in - WNW 21.9 mph 26.5 mph N/A   Clear
9:53 AM -5.8 °F -29.9 °F -16.6 °F 60% 30.43 in - WNW 20.7 mph 27.6 mph N/A   Clear
10:13 AM -5.8 °F -29.4 °F -16.6 °F 60% 30.43 in - NW 19.6 mph 27.6 mph N/A   Clear
10:33 AM -5.8 °F -29.9 °F -16.6 °F 60% 30.44 in - NW 20.7 mph 28.8 mph N/A   Clear
10:53 AM -4.0 °F -25.8 °F -14.8 °F 60% 30.44 in - NW 17.3 mph 27.6 mph N/A   Clear
11:13 AM -4.0 °F -28.1 °F -14.8 °F 60% 30.44 in - NW 21.9 mph 28.8 mph N/A   Clear
11:33 AM -4.0 °F -26.4 °F -14.8 °F 60% 30.44 in - NW 18.4 mph 29.9 mph N/A   Clear
11:53 AM -4.0 °F -27.0 °F -14.8 °F 60% 30.43 in 10.0 mi NW 19.6 mph - N/A   Clear
12:13 PM -2.2 °F -25.7 °F -14.8 °F 55% 30.43 in 10.0 mi NW 21.9 mph 29.9 mph N/A   Clear
12:33 PM -2.2 °F -25.2 °F -13.0 °F 60% 30.43 in 10.0 mi NW 20.7 mph 28.8 mph N/A   Clear
12:53 PM -0.4 °F -23.3 °F -14.8 °F 51% 30.42 in 10.0 mi WNW 21.9 mph - N/A   Clear
1:13 PM -0.4 °F -24.3 °F -14.8 °F 51% 30.41 in 10.0 mi NW 24.2 mph 27.6 mph N/A   Clear
1:33 PM -0.4 °F -22.8 °F -14.8 °F 51% 30.42 in 10.0 mi NW 20.7 mph 25.3 mph N/A   Clear
1:53 PM 1.4 °F -19.4 °F -14.8 °F 47% 30.42 in 10.0 mi NW 18.4 mph - N/A   Clear
2:13 PM 1.4 °F -18.2 °F -16.6 °F 43% 30.42 in 10.0 mi NW 16.1 mph 25.3 mph N/A   Clear
2:33 PM -0.4 °F -21.2 °F -16.6 °F 46% 30.42 in 10.0 mi NW 17.3 mph 25.3 mph N/A   Clear
2:53 PM 1.4 °F -18.8 °F -14.8 °F 47% 30.43 in 10.0 mi NW 17.3 mph 21.9 mph N/A   Clear
3:13 PM -0.4 °F -19.2 °F -16.6 °F 46% 30.43 in 10.0 mi WNW 13.8 mph - N/A   Clear
3:33 PM -0.4 °F -20.5 °F -16.6 °F 46% 30.44 in 10.0 mi WNW 16.1 mph 21.9 mph N/A   Clear
3:53 PM -0.4 °F -19.2 °F -16.6 °F 46% 30.44 in 10.0 mi WNW 13.8 mph - N/A   Clear
4:13 PM -0.4 °F -19.2 °F -14.8 °F 51% 30.45 in 10.0 mi WNW 13.8 mph 19.6 mph N/A   Clear
4:33 PM -0.4 °F -18.4 °F -16.6 °F 46% 30.46 in 10.0 mi WNW 12.7 mph - N/A   Clear
4:53 PM -2.2 °F -21.5 °F -16.6 °F 50% 30.46 in 10.0 mi WNW 13.8 mph - N/A   Clear
5:13 PM -2.2 °F -21.5 °F -18.4 °F 46% 30.46 in 10.0 mi WNW 13.8 mph 19.6 mph N/A   Clear
5:33 PM -2.2 °F -18.9 °F -18.4 °F 46% 30.46 in 10.0 mi WNW 10.4 mph - N/A   Clear
5:53 PM -4.0 °F -24.5 °F -16.6 °F 55% 30.46 in 10.0 mi WNW 15.0 mph - N/A   Clear
6:13 PM -4.0 °F -23.7 °F -16.6 °F 55% 30.47 in 10.0 mi WNW 13.8 mph - N/A   Clear
6:33 PM -4.0 °F -21.2 °F -16.6 °F 55% 30.47 in 10.0 mi West 10.4 mph - N/A   Clear
6:53 PM -5.8 °F -19.9 °F -14.8 °F 65% 30.47 in 10.0 mi WNW 6.9 mph - N/A   Clear
7:13 PM -5.8 °F -22.4 °F -16.6 °F 60% 30.47 in 10.0 mi WNW 9.2 mph - N/A   Clear
7:33 PM -5.8 °F -25.2 °F -16.6 °F 60% 30.47 in 10.0 mi WNW 12.7 mph - N/A   Clear
7:53 PM -5.8 °F -24.4 °F -16.6 °F 60% 30.47 in 10.0 mi WNW 11.5 mph - N/A   Clear
8:13 PM -5.8 °F -21.2 °F -16.6 °F 60% 30.47 in 10.0 mi WNW 8.1 mph - N/A   Clear
8:33 PM -5.8 °F -22.4 °F -16.6 °F 60% 30.45 in 10.0 mi NW 9.2 mph - N/A   Clear
8:53 PM -5.8 °F -21.2 °F -16.6 °F 60% 30.46 in 10.0 mi WNW 8.1 mph - N/A   Clear
9:14 PM -5.8 °F -19.9 °F -16.6 °F 60% 30.46 in 10.0 mi WNW 6.9 mph - N/A   Clear
9:33 PM -5.8 °F -21.2 °F -16.6 °F 60% 30.46 in 10.0 mi West 8.1 mph - N/A   Clear
9:53 PM -7.6 °F -24.6 °F -16.6 °F 65% 30.46 in 10.0 mi West 9.2 mph - N/A   Clear
10:14 PM -7.6 °F -20.6 °F -16.6 °F 65% 30.44 in 10.0 mi NW 5.8 mph - N/A   Clear
10:33 PM -9.4 °F -22.7 °F -18.4 °F 65% 30.44 in 10.0 mi WNW 5.8 mph - N/A   Clear
10:53 PM -9.4 °F - -18.4 °F 65% 30.44 in 10.0 mi Calm Calm - N/A   Clear
11:14 PM -7.6 °F -20.6 °F -16.6 °F 65% 30.43 in 10.0 mi NNW 5.8 mph - N/A   Clear
11:33 PM -7.6 °F -18.8 °F -16.6 °F 65% 30.44 in 10.0 mi WNW 4.6 mph - N/A   Clear
11:53 PM -9.4 °F - -16.6 °F 71% 30.44 in 10.0 mi Calm Calm - N/A   Clear